TimeCDT,TemperatureF,Dew PointF,Humidity,Sea Level PressureIn,VisibilityMPH,Wind Direction,Wind SpeedMPH,Gust SpeedMPH,PrecipitationIn,Events,Conditions,WindDirDegrees,DateUTC
12:52 AM,68.0,64.0,87,29.97,10.0,Calm,Calm,-,N/A,,Clear,0,2013-06-19 05:52:00
1:52 AM,66.9,64.0,90,29.99,10.0,Calm,Calm,-,N/A,,Clear,0,2013-06-19 06:52:00
2:52 AM,66.0,64.0,93,29.99,10.0,Calm,Calm,-,N/A,,Clear,0,2013-06-19 07:52:00
3:52 AM,66.0,64.0,93,29.96,10.0,NE,4.6,-,N/A,,Clear,50,2013-06-19 08:52:00
4:52 AM,66.0,63.0,90,29.98,10.0,Calm,Calm,-,N/A,,Clear,0,2013-06-19 09:52:00
5:52 AM,64.0,63.0,96,29.98,9.0,Calm,Calm,-,N/A,,Clear,0,2013-06-19 10:52:00
6:52 AM,66.9,64.9,93,29.99,8.0,Calm,Calm,-,N/A,,Clear,0,2013-06-19 11:52:00
7:52 AM,72.0,66.9,84,30.00,7.0,SSE,3.5,-,N/A,,Clear,160,2013-06-19 12:52:00
8:52 AM,77.0,68.0,74,30.01,6.0,South,6.9,-,N/A,,Haze,190,2013-06-19 13:52:00
9:52 AM,80.1,68.0,67,30.01,9.0,SSW,8.1,-,N/A,,Clear,200,2013-06-19 14:52:00
10:52 AM,82.9,66.0,56,30.00,10.0,SSE,12.7,-,N/A,,Clear,160,2013-06-19 15:52:00
11:52 AM,84.0,66.0,55,30.00,9.0,SSE,12.7,18.4,N/A,,Clear,160,2013-06-19 16:52:00
12:52 PM,84.0,66.0,55,29.99,8.0,South,12.7,20.7,N/A,,Partly Cloudy,170,2013-06-19 17:52:00
1:52 PM,84.0,64.9,53,29.99,10.0,South,12.7,-,N/A,,Clear,170,2013-06-19 18:52:00
2:52 PM,84.0,66.9,56,29.97,5.0,SSE,10.4,-,N/A,,Haze,150,2013-06-19 19:52:00
3:52 PM,84.9,66.0,53,29.96,10.0,SSE,10.4,-,N/A,,Clear,150,2013-06-19 20:52:00
4:52 PM,84.9,66.0,53,29.94,10.0,South,8.1,-,N/A,,Clear,180,2013-06-19 21:52:00
5:52 PM,84.9,66.0,53,29.93,10.0,SSE,11.5,-,N/A,,Partly Cloudy,160,2013-06-19 22:52:00
6:52 PM,84.9,66.0,53,29.93,10.0,SSE,10.4,-,N/A,,Clear,160,2013-06-19 23:52:00
7:52 PM,82.9,66.0,56,29.93,10.0,SSE,8.1,-,N/A,,Clear,150,2013-06-20 00:52:00
8:52 PM,78.1,66.9,68,29.93,10.0,SE,5.8,-,N/A,,Clear,140,2013-06-20 01:52:00
9:52 PM,75.0,66.9,76,29.95,10.0,Calm,Calm,-,N/A,,Clear,0,2013-06-20 02:52:00
10:52 PM,73.0,66.9,81,29.97,10.0,SE,4.6,-,N/A,,Clear,140,2013-06-20 03:52:00
11:52 PM,75.0,66.9,76,29.96,10.0,SE,8.1,-,N/A,,Clear,140,2013-06-20 04:52:00